| time (UTC) | temp F | wind direction | speed knots | gust knots | rain 1hr in | rain 24hr in | rain mn in | humidity % | barometer mb |
| 20260506025617 | 48 | 290 | 0.0 | 1.7 | 0.00 | 0.23 | 0.04 | 59 | 1003.0 |
| 20260506024546 | 49 | 19 | 0.0 | 2.6 | 0.00 | 0.24 | 0.04 | 59 | 1003.0 |
| 20260506023524 | 49 | 134 | 0.0 | 0.9 | 0.00 | 0.26 | 0.04 | 58 | 1002.8 |
| 20260506022525 | 49 | 270 | 0.0 | 0.0 | 0.00 | 0.29 | 0.04 | 57 | 1002.7 |
| 20260506021536 | 50 | 302 | 0.0 | 5.2 | 0.00 | 0.34 | 0.04 | 57 | 1002.5 |
| 20260506020517 | 50 | 64 | 1.7 | 0.0 | 0.00 | 0.34 | 0.04 | 57 | 1002.5 |
| 20260506015502 | 51 | 0 | 3.5 | 13.0 | 0.00 | 0.36 | 0.04 | 55 | 1002.2 |
| 20260506014428 | 51 | 330 | 5.2 | 13.0 | 0.00 | 0.37 | 0.04 | 54 | 1002.0 |
| 20260506013357 | 52 | 9 | 5.2 | 17.4 | 0.00 | 0.37 | 0.04 | 53 | 1001.8 |
| 20260506012413 | 52 | 313 | 4.3 | 17.4 | 0.00 | 0.37 | 0.04 | 52 | 1001.5 |
| 20260506011437 | 53 | 33 | 6.1 | 14.8 | 0.00 | 0.37 | 0.04 | 50 | 1001.3 |
| 20260506010407 | 53 | 355 | 6.1 | 16.5 | 0.00 | 0.37 | 0.04 | 49 | 1001.3 |
| 20260506005414 | 54 | 300 | 6.1 | 21.7 | 0.00 | 0.37 | 0.04 | 48 | 1001.1 |
| 20260506004410 | 55 | 297 | 6.1 | 21.7 | 0.00 | 0.37 | 0.04 | 46 | 1000.8 |
| 20260506003352 | 56 | 333 | 6.1 | 15.6 | 0.00 | 0.37 | 0.04 | 45 | 1000.5 |
| 20260506002412 | 58 | 330 | 6.1 | 15.6 | 0.00 | 0.37 | 0.04 | 43 | 1000.3 |
| 20260506000309 | 58 | 200 | 7.8 | 19.1 | 0.00 | 0.37 | 0.04 | 45 | 999.7 |
| 20260505235257 | 59 | 318 | 7.0 | 19.1 | 0.00 | 0.39 | 0.04 | 44 | 999.7 |
| 20260505234240 | 59 | 340 | 4.3 | 13.0 | 0.00 | 0.39 | 0.04 | 43 | 999.5 |
| 20260505233238 | 57 | 30 | 0.0 | 3.5 | 0.00 | 0.41 | 0.04 | 50 | 999.6 |
| 20260505232236 | 55 | 146 | 0.0 | 0.0 | 0.00 | 0.42 | 0.04 | 57 | 999.7 |
| 20260505231226 | 54 | 9 | 0.0 | 0.0 | 0.00 | 0.42 | 0.04 | 64 | 999.8 |
| 20260505230207 | 54 | 134 | 0.9 | 5.2 | 0.00 | 0.42 | 0.04 | 62 | 999.7 |
| 20260505225157 | 56 | 86 | 0.0 | 5.2 | 0.00 | 0.42 | 0.04 | 52 | 999.9 |
| 20260505224133 | 59 | 311 | 0.0 | 1.7 | 0.00 | 0.41 | 0.03 | 42 | 1000.0 |
| 20260505223123 | 59 | 345 | 0.9 | 6.1 | 0.00 | 0.41 | 0.03 | 42 | 999.9 |
| 20260505221102 | 60 | 340 | 3.5 | 8.7 | 0.00 | 0.41 | 0.03 | 41 | 999.9 |
| 20260505220108 | 60 | 335 | 2.6 | 8.7 | 0.00 | 0.41 | 0.03 | 43 | 1000.0 |
| 20260505215125 | 59 | 350 | 3.5 | 14.8 | 0.00 | 0.41 | 0.03 | 43 | 1000.0 |
| 20260505214106 | 60 | 20 | 4.3 | 14.8 | 0.00 | 0.43 | 0.03 | 43 | 1000.1 |
| 20260505213106 | 61 | 27 | 1.7 | 12.2 | 0.00 | 0.43 | 0.03 | 41 | 1000.0 |
| 20260505212100 | 59 | 294 | 4.3 | 14.8 | 0.00 | 0.43 | 0.03 | 36 | 1000.5 |
| 20260505204808 | 59 | 333 | 7.8 | 19.1 | 0.00 | 0.43 | 0.03 | 42 | 1000.0 |
| 20260505202656 | 63 | 27 | 3.5 | 15.6 | 0.00 | 0.43 | 0.03 | 32 | 999.9 |
| 20260505201658 | 61 | 159 | 4.3 | 15.6 | 0.00 | 0.43 | 0.03 | 31 | 999.8 |
| 20260505200634 | 60 | 249 | 5.2 | 15.6 | 0.00 | 0.43 | 0.03 | 38 | 999.9 |
| 20260505195656 | 60 | 116 | 5.2 | 18.2 | 0.00 | 0.43 | 0.03 | 39 | 999.7 |
| 20260505194641 | 60 | 168 | 4.3 | 18.2 | 0.00 | 0.43 | 0.03 | 38 | 999.8 |
| 20260505192536 | 60 | 13 | 0.0 | 1.7 | 0.00 | 0.45 | 0.03 | 35 | 1000.1 |
| 20260505191527 | 60 | 257 | 3.5 | 12.2 | 0.00 | 0.45 | 0.03 | 39 | 1000.4 |
| 20260505190536 | 61 | 20 | 4.3 | 12.2 | 0.00 | 0.45 | 0.03 | 40 | 1000.1 |
| 20260505184434 | 62 | 51 | 2.6 | 7.8 | 0.00 | 0.45 | 0.03 | 43 | 1000.5 |
| 20260505183447 | 61 | 53 | 2.6 | 8.7 | 0.00 | 0.45 | 0.03 | 43 | 1000.7 |
| 20260505182510 | 60 | 44 | 2.6 | 12.2 | 0.00 | 0.45 | 0.03 | 44 | 1000.7 |
| 20260505181519 | 60 | 57 | 3.5 | 12.2 | 0.00 | 0.45 | 0.03 | 43 | 1001.0 |
| 20260505180505 | 60 | 345 | 2.6 | 9.6 | 0.00 | 0.45 | 0.03 | 45 | 1001.1 |
| 20260505175516 | 60 | 4 | 1.7 | 6.1 | 0.00 | 0.45 | 0.03 | 47 | 1001.2 |
| 20260505174502 | 58 | 355 | 2.6 | 7.8 | 0.00 | 0.45 | 0.03 | 52 | 1001.4 |
| 20260505173507 | 58 | 6 | 2.6 | 7.8 | 0.00 | 0.45 | 0.03 | 52 | 1001.5 |
| 20260505172516 | 59 | 49 | 2.6 | 7.0 | 0.00 | 0.45 | 0.03 | 51 | 1001.7 |
| 20260505171528 | 58 | 354 | 2.6 | 7.0 | 0.00 | 0.45 | 0.03 | 56 | 1001.9 |
| 20260505170538 | 57 | 358 | 1.7 | 5.2 | 0.00 | 0.45 | 0.03 | 62 | 1002.1 |
| 20260505165539 | 56 | 333 | 1.7 | 4.3 | 0.00 | 0.45 | 0.03 | 64 | 1002.2 |
| 20260505164515 | 55 | 33 | 0.9 | 4.3 | 0.00 | 0.45 | 0.03 | 68 | 1002.6 |
| 20260505162352 | 53 | 346 | 0.0 | 2.6 | 0.00 | 0.45 | 0.03 | 76 | 1003.0 |
| 20260505161411 | 53 | 18 | 0.0 | 3.5 | 0.00 | 0.45 | 0.03 | 75 | 1003.1 |
| 20260505160355 | 53 | 84 | 0.9 | 3.5 | 0.00 | 0.45 | 0.03 | 77 | 1003.3 |
| 20260505152223 | 47 | 14 | 0.0 | 1.7 | 0.00 | 0.45 | 0.03 | 86 | 1004.0 |
| 20260505150127 | 45 | 261 | 0.0 | 0.9 | 0.00 | 0.45 | 0.03 | 92 | 1004.4 |
| 20260505083910 | 41 | 248 | 0.0 | 0.0 | 0.00 | 0.45 | 0.03 | 96 | 1006.5 |
| 20260505081847 | 43 | 248 | 0.0 | 0.0 | 0.00 | 0.45 | 0.03 | 96 | 1007.1 |
| 20260505080832 | 43 | 248 | 0.0 | 0.0 | 0.00 | 0.45 | 0.03 | 96 | 1007.1 |
| 20260505075802 | 43 | 248 | 0.0 | 0.0 | 0.00 | 0.45 | 0.03 | 96 | 1007.2 |
| 20260505073710 | 44 | 248 | 0.0 | 0.0 | 0.00 | 0.45 | 0.03 | 95 | 1007.6 |
| 20260505071601 | 44 | 249 | 0.0 | 0.0 | 0.00 | 0.45 | 0.03 | 95 | 1008.0 |
| 20260505070546 | 44 | 248 | 0.0 | 0.0 | 0.00 | 0.45 | 0.03 | 95 | 1008.1 |
| 20260505065555 | 44 | 248 | 0.0 | 0.0 | 0.00 | 0.45 | 0.03 | 95 | 1007.9 |
| 20260505064557 | 44 | 249 | 0.0 | 0.0 | 0.00 | 0.45 | 0.03 | 95 | 1008.3 |
| 20260505063549 | 44 | 248 | 0.0 | 0.0 | 0.00 | 0.45 | 0.03 | 95 | 1008.3 |
| 20260505062526 | 45 | 240 | 0.0 | 0.0 | 0.06 | 0.45 | 0.03 | 95 | 1008.1 |
| 20260505061525 | 45 | 23 | 0.0 | 0.9 | 0.06 | 0.44 | 0.02 | 95 | 1007.7 |
| 20260505060525 | 45 | 290 | 0.0 | 0.0 | 0.06 | 0.42 | 0.01 | 95 | 1008.4 |
| 20260505054414 | 45 | 71 | 0.0 | 0.0 | 0.06 | 0.42 | 0.42 | 95 | 1007.9 |
| 20260505053434 | 45 | 71 | 0.0 | 0.0 | 0.08 | 0.40 | 0.40 | 95 | 1008.4 |
| 20260505052452 | 45 | 127 | 0.0 | 0.0 | 0.04 | 0.39 | 0.40 | 95 | 1008.5 |
| 20260505041151 | 45 | 127 | 0.0 | 0.0 | 0.00 | 0.35 | 0.35 | 94 | 1008.3 |
| 20260505034946 | 46 | 112 | 0.0 | 2.6 | 0.06 | 0.35 | 0.35 | 93 | 1008.1 |
| 20260505033946 | 46 | 120 | 0.0 | 0.0 | 0.28 | 0.32 | 0.34 | 92 | 1007.8 |
| 20260505032944 | 46 | 252 | 0.0 | 0.0 | 0.16 | 0.29 | 0.30 | 91 | 1007.8 |
| 20260505031936 | 46 | 252 | 0.0 | 0.0 | 0.17 | 0.26 | 0.27 | 91 | 1007.7 |
| 20260505030928 | 47 | 355 | 0.0 | 0.9 | 0.00 | 0.24 | 0.24 | 90 | 1007.5 |
| 20260505025928 | 47 | 281 | 0.0 | 3.5 | 0.05 | 0.23 | 0.23 | 89 | 1007.3 |